Private Wetterstation Wechselburg
Wetterdaten: Montag, 30.10.2017
Datum Zeit Temp. +2m Bodentemp. Temp.+5cm Temp. Wind Windchill X Diff Temp. Feuchte +2m Feuchte +5cm Sonnenschein Luftdruck Regen Wind Richtung Richtung Sonnenschein Taupunkt Windchill Windben
30.10.2017 00:00 4,9 C 9,9 C 4,8 C 4,4 C 3,4 C 0,0 C 86 % 75 % 0 % 1014,1 hPa 0,0 l/m 4,7 km/h (1 Bft) W-SW 247 0 min 2,8 C 2,4 C 4,7 km/h (1 Bft)
30.10.2017 00:05 5,0 C 9,9 C 4,9 C 4,4 C 3,1 C 0,0 C 86 % 75 % 0 % 1014,1 hPa 0,0 l/m 5,8 km/h (2 Bft) W-SW 247 0 min 2,9 C 1,6 C 10,8 km/h (2 Bft)
30.10.2017 00:10 5,1 C 9,8 C 5,1 C 4,4 C 2,9 C 0,0 C 86 % 75 % 0 % 1014,1 hPa 0,0 l/m 6,9 km/h (2 Bft) W 270 0 min 3,0 C 1,0 C 9,2 km/h (2 Bft)
30.10.2017 00:15 5,2 C 9,8 C 5,1 C 4,5 C 3,1 C 0,0 C 85 % 75 % 0 % 1014,1 hPa 0,0 l/m 6,9 km/h (2 Bft) SW 225 0 min 2,9 C 1,2 C 5,1 km/h (1 Bft)
30.10.2017 00:20 5,3 C 9,8 C 5,0 C 4,7 C 3,4 C 0,0 C 85 % 75 % 0 % 1014,5 hPa 0,0 l/m 6,1 km/h (2 Bft) W-SW 247 0 min 3,0 C 1,8 C 10,0 km/h (2 Bft)
30.10.2017 00:25 5,3 C 9,8 C 5,1 C 4,7 C 3,4 C 0,0 C 85 % 75 % 0 % 1014,5 hPa 0,0 l/m 6,1 km/h (2 Bft) SW 225 0 min 3,0 C 1,8 C 9,2 km/h (2 Bft)
30.10.2017 00:30 5,2 C 9,8 C 5,1 C 4,6 C 3,4 C 0,0 C 85 % 75 % 0 % 1014,5 hPa 0,0 l/m 6,0 km/h (2 Bft) W-SW 247 0 min 2,9 C 1,9 C 5,5 km/h (1 Bft)
30.10.2017 00:35 5,2 C 9,8 C 5,1 C 4,7 C 3,7 C 0,0 C 85 % 75 % 0 % 1014,5 hPa 0,0 l/m 5,5 km/h (1 Bft) W 270 0 min 2,9 C 2,4 C 4,2 km/h (1 Bft)
30.10.2017 00:40 5,2 C 9,8 C 5,0 C 4,6 C 3,5 C 0,0 C 85 % 75 % 0 % 1014,4 hPa 0,0 l/m 5,6 km/h (1 Bft) W-SW 247 0 min 2,9 C 2,1 C 6,3 km/h (2 Bft)
30.10.2017 00:45 5,2 C 9,8 C 5,1 C 4,6 C 3,3 C 0,0 C 85 % 75 % 0 % 1014,4 hPa 0,0 l/m 5,8 km/h (2 Bft) SW 225 0 min 2,9 C 1,8 C 9,2 km/h (2 Bft)
30.10.2017 00:50 5,2 C 9,8 C 5,1 C 4,6 C 3,3 C 0,0 C 85 % 75 % 0 % 1014,4 hPa 0,0 l/m 6,3 km/h (2 Bft) SW 225 0 min 2,9 C 1,7 C 6,4 km/h (2 Bft)
30.10.2017 00:55 5,2 C 9,8 C 5,1 C 4,6 C 3,4 C 0,0 C 85 % 75 % 0 % 1014,4 hPa 0,0 l/m 6,4 km/h (2 Bft) SW 225 0 min 2,9 C 1,7 C 8,5 km/h (2 Bft)
30.10.2017 01:00 5,3 C 9,8 C 5,2 C 4,8 C 3,7 C 0,0 C 85 % 75 % 0 % 1014,8 hPa 0,0 l/m 5,6 km/h (1 Bft) S-SW 202 0 min 3,0 C 2,4 C 6,6 km/h (2 Bft)
30.10.2017 01:05 5,3 C 9,8 C 5,1 C 4,8 C 3,7 C 0,0 C 85 % 75 % 0 % 1014,8 hPa 0,0 l/m 5,6 km/h (1 Bft) SW 225 0 min 3,0 C 2,4 C 4,7 km/h (1 Bft)
30.10.2017 01:10 5,3 C 9,7 C 5,0 C 4,7 C 3,4 C 0,0 C 85 % 75 % 0 % 1014,8 hPa 0,0 l/m 6,0 km/h (2 Bft) W-SW 247 0 min 3,0 C 1,9 C 10,1 km/h (2 Bft)
30.10.2017 01:15 5,3 C 9,7 C 5,1 C 4,7 C 3,4 C 0,0 C 85 % 75 % 0 % 1014,8 hPa 0,0 l/m 5,8 km/h (2 Bft) SW 225 0 min 3,0 C 2,0 C 9,3 km/h (2 Bft)
30.10.2017 01:20 5,2 C 9,7 C 5,1 C 4,6 C 3,3 C 0,0 C 85 % 75 % 0 % 1014,8 hPa 0,0 l/m 6,0 km/h (2 Bft) W-SW 247 0 min 2,9 C 1,8 C 7,9 km/h (2 Bft)
30.10.2017 01:25 5,2 C 9,7 C 5,1 C 4,5 C 3,2 C 0,0 C 85 % 75 % 0 % 1014,8 hPa 0,0 l/m 6,3 km/h (2 Bft) W-SW 247 0 min 2,9 C 1,5 C 7,7 km/h (2 Bft)
30.10.2017 01:30 5,2 C 9,7 C 5,1 C 4,6 C 3,3 C 0,0 C 85 % 75 % 0 % 1014,8 hPa 0,0 l/m 6,0 km/h (2 Bft) W-NW 292 0 min 2,9 C 1,8 C 9,7 km/h (2 Bft)
30.10.2017 01:35 5,2 C 9,7 C 5,0 C 4,6 C 3,3 C 0,0 C 85 % 75 % 0 % 1014,8 hPa 0,0 l/m 5,5 km/h (1 Bft) SW 225 0 min 2,9 C 2,0 C 7,4 km/h (2 Bft)
30.10.2017 01:40 5,2 C 9,7 C 5,1 C 4,5 C 3,2 C 0,0 C 85 % 75 % 0 % 1015,1 hPa 0,0 l/m 5,8 km/h (2 Bft) SW 225 0 min 2,9 C 1,7 C 5,3 km/h (1 Bft)
30.10.2017 01:45 5,3 C 9,7 C 5,1 C 4,6 C 3,1 C 0,0 C 85 % 75 % 0 % 1015,1 hPa 0,0 l/m 6,3 km/h (2 Bft) W-SW 247 0 min 3,0 C 1,4 C 9,8 km/h (2 Bft)
30.10.2017 01:50 5,3 C 9,7 C 5,1 C 4,4 C 2,7 C 0,0 C 85 % 75 % 0 % 1015,1 hPa 0,0 l/m 7,6 km/h (2 Bft) SW 225 0 min 3,0 C 0,6 C 18,5 km/h (3 Bft)
30.10.2017 01:55 5,3 C 9,7 C 5,1 C 4,4 C 2,7 C 0,0 C 85 % 75 % 0 % 1015,1 hPa 0,0 l/m 7,2 km/h (2 Bft) W-SW 247 0 min 3,0 C 0,7 C 9,0 km/h (2 Bft)
30.10.2017 02:00 5,3 C 9,7 C 5,1 C 4,6 C 3,1 C 0,0 C 85 % 75 % 0 % 1015,3 hPa 0,0 l/m 6,1 km/h (2 Bft) W-SW 247 0 min 3,0 C 1,5 C 14,8 km/h (3 Bft)
30.10.2017 02:05 5,3 C 9,7 C 5,0 C 4,5 C 2,9 C 0,0 C 85 % 75 % 0 % 1015,3 hPa 0,0 l/m 6,6 km/h (2 Bft) NW 315 0 min 3,0 C 1,1 C 6,4 km/h (2 Bft)
30.10.2017 02:10 5,3 C 9,7 C 5,0 C 4,4 C 2,6 C 0,0 C 85 % 75 % 0 % 1015,3 hPa 0,0 l/m 7,2 km/h (2 Bft) SW 225 0 min 3,0 C 0,6 C 8,0 km/h (2 Bft)
30.10.2017 02:15 5,3 C 9,7 C 5,1 C 4,5 C 2,8 C 0,0 C 85 % 76 % 0 % 1015,3 hPa 0,0 l/m 6,4 km/h (2 Bft) SW 225 0 min 3,0 C 1,1 C 4,5 km/h (1 Bft)
30.10.2017 02:20 5,3 C 9,7 C 5,1 C 4,5 C 3,0 C 0,0 C 85 % 76 % 0 % 1015,6 hPa 0,0 l/m 6,4 km/h (2 Bft) W-SW 247 0 min 3,0 C 1,3 C 6,8 km/h (2 Bft)
30.10.2017 02:25 5,3 C 9,7 C 5,1 C 4,6 C 3,1 C 0,0 C 85 % 76 % 0 % 1015,6 hPa 0,0 l/m 6,1 km/h (2 Bft) W 270 0 min 3,0 C 1,5 C 6,3 km/h (2 Bft)
30.10.2017 02:30 5,3 C 9,7 C 5,1 C 4,7 C 3,4 C 0,0 C 85 % 76 % 0 % 1015,6 hPa 0,0 l/m 5,5 km/h (1 Bft) SW 225 0 min 3,0 C 2,1 C 6,1 km/h (2 Bft)
30.10.2017 02:35 5,3 C 9,6 C 5,1 C 4,7 C 3,4 C 0,0 C 85 % 75 % 0 % 1015,6 hPa 0,0 l/m 6,0 km/h (2 Bft) W-SW 247 0 min 3,0 C 1,9 C 8,2 km/h (2 Bft)
30.10.2017 02:40 5,3 C 9,6 C 5,1 C 4,7 C 3,4 C 0,0 C 85 % 75 % 0 % 1015,6 hPa 0,0 l/m 6,6 km/h (2 Bft) W-SW 247 0 min 3,0 C 1,7 C 6,8 km/h (2 Bft)
30.10.2017 02:45 5,3 C 9,6 C 5,3 C 4,7 C 3,5 C 0,0 C 85 % 76 % 0 % 1015,6 hPa 0,0 l/m 6,6 km/h (2 Bft) S-SW 202 0 min 3,0 C 1,8 C 4,5 km/h (1 Bft)
30.10.2017 02:50 5,3 C 9,6 C 5,3 C 4,8 C 3,7 C 0,0 C 85 % 76 % 0 % 1015,6 hPa 0,0 l/m 5,6 km/h (1 Bft) W-SW 247 0 min 3,0 C 2,4 C 7,7 km/h (2 Bft)
30.10.2017 02:55 5,3 C 9,6 C 5,2 C 4,8 C 3,7 C 0,0 C 85 % 75 % 0 % 1015,6 hPa 0,0 l/m 6,3 km/h (2 Bft) SW 225 0 min 3,0 C 2,1 C 5,0 km/h (1 Bft)
30.10.2017 03:00 5,3 C 9,6 C 5,3 C 4,8 C 3,8 C 0,0 C 85 % 76 % 0 % 1015,8 hPa 0,0 l/m 6,6 km/h (2 Bft) SW 225 0 min 3,0 C 2,1 C 6,4 km/h (2 Bft)
30.10.2017 03:05 5,2 C 9,6 C 5,3 C 4,8 C 4,1 C 0,0 C 85 % 76 % 0 % 1015,8 hPa 0,0 l/m 5,8 km/h (2 Bft) SW 225 0 min 2,9 C 2,8 C 6,9 km/h (2 Bft)
30.10.2017 03:10 5,3 C 9,6 C 5,3 C 4,9 C 4,2 C 0,0 C 85 % 76 % 0 % 1015,8 hPa 0,0 l/m 5,3 km/h (1 Bft) SW 225 0 min 3,0 C 3,1 C 5,3 km/h (1 Bft)
30.10.2017 03:15 5,2 C 9,6 C 5,5 C 4,8 C 4,1 C 0,0 C 85 % 76 % 0 % 1015,8 hPa 0,0 l/m 5,8 km/h (2 Bft) W-SW 247 0 min 2,9 C 2,8 C 4,7 km/h (1 Bft)
30.10.2017 03:20 5,2 C 9,6 C 5,5 C 4,8 C 4,1 C 0,0 C 85 % 76 % 0 % 1015,4 hPa 0,0 l/m 5,8 km/h (2 Bft) W 270 0 min 2,9 C 2,8 C 7,4 km/h (2 Bft)
30.10.2017 03:25 5,2 C 9,5 C 5,5 C 4,9 C 4,3 C 0,0 C 85 % 76 % 0 % 1015,4 hPa 0,0 l/m 5,3 km/h (1 Bft) SW 225 0 min 2,9 C 3,2 C 7,7 km/h (2 Bft)
30.10.2017 03:30 5,3 C 9,4 C 5,7 C 5,0 C 4,4 C 0,0 C 85 % 76 % 0 % 1015,4 hPa 0,0 l/m 5,6 km/h (1 Bft) W-SW 247 0 min 3,0 C 3,2 C 10,3 km/h (2 Bft)
30.10.2017 03:35 5,5 C 9,4 C 5,6 C 5,0 C 4,1 C 0,0 C 85 % 76 % 0 % 1015,4 hPa 0,0 l/m 6,8 km/h (2 Bft) W-NW 292 0 min 3,2 C 2,4 C 9,3 km/h (2 Bft)
30.10.2017 03:40 5,4 C 9,4 C 5,7 C 5,0 C 4,2 C 0,0 C 85 % 76 % 0 % 1015,4 hPa 0,0 l/m 6,6 km/h (2 Bft) SW 225 0 min 3,1 C 2,6 C 9,0 km/h (2 Bft)
30.10.2017 03:45 5,5 C 9,4 C 5,7 C 5,2 C 4,5 C 0,0 C 85 % 76 % 0 % 1015,4 hPa 0,0 l/m 6,1 km/h (2 Bft) W 270 0 min 3,2 C 3,1 C 8,7 km/h (2 Bft)
30.10.2017 03:50 5,6 C 9,4 C 5,9 C 5,4 C 4,9 C 0,0 C 85 % 76 % 0 % 1015,4 hPa 0,0 l/m 5,0 km/h (1 Bft) W-SW 247 0 min 3,3 C 4,0 C 4,2 km/h (1 Bft)
30.10.2017 03:55 5,6 C 9,4 C 5,9 C 5,5 C 5,2 C 0,0 C 85 % 77 % 0 % 1015,4 hPa 0,0 l/m 4,5 km/h (1 Bft) W-SW 247 0 min 3,3 C 5,2 C 7,4 km/h (2 Bft)
30.10.2017 04:00 5,7 C 9,4 C 5,8 C 5,4 C 4,8 C 0,0 C 85 % 77 % 0 % 1015,8 hPa 0,0 l/m 5,3 km/h (1 Bft) W-SW 247 0 min 3,4 C 3,7 C 10,6 km/h (2 Bft)
30.10.2017 04:05 5,7 C 9,4 C 5,9 C 5,3 C 4,6 C 0,0 C 85 % 77 % 0 % 1015,8 hPa 0,0 l/m 6,1 km/h (2 Bft) W-SW 247 0 min 3,4 C 3,2 C 10,5 km/h (2 Bft)
30.10.2017 04:10 5,6 C 9,4 C 5,9 C 5,3 C 4,8 C 0,0 C 85 % 77 % 0 % 1015,8 hPa 0,0 l/m 5,5 km/h (1 Bft) SW 225 0 min 3,3 C 3,7 C 10,1 km/h (2 Bft)
30.10.2017 04:15 5,6 C 9,4 C 5,8 C 5,4 C 4,9 C 0,0 C 85 % 78 % 0 % 1015,8 hPa 0,0 l/m 5,1 km/h (1 Bft) W-SW 247 0 min 3,3 C 3,9 C 7,9 km/h (2 Bft)
30.10.2017 04:20 5,7 C 9,4 C 5,9 C 5,3 C 4,6 C 0,0 C 85 % 78 % 0 % 1015,9 hPa 0,0 l/m 6,1 km/h (2 Bft) W 270 0 min 3,4 C 3,2 C 5,1 km/h (1 Bft)
30.10.2017 04:25 5,7 C 9,4 C 5,9 C 5,4 C 4,8 C 0,0 C 85 % 78 % 0 % 1015,9 hPa 0,0 l/m 5,6 km/h (1 Bft) W-SW 247 0 min 3,4 C 3,6 C 6,1 km/h (2 Bft)
30.10.2017 04:30 5,9 C 9,4 C 5,9 C 5,6 C 5,1 C 0,0 C 84 % 78 % 0 % 1015,9 hPa 0,0 l/m 5,0 km/h (1 Bft) W-SW 247 0 min 3,4 C 4,2 C 4,7 km/h (1 Bft)
30.10.2017 04:35 5,9 C 9,4 C 6,0 C 5,7 C 5,2 C 0,0 C 84 % 78 % 0 % 1015,9 hPa 0,0 l/m 4,7 km/h (1 Bft) S-SW 202 0 min 3,4 C 4,4 C 0,0 km/h (0 Bft)
30.10.2017 04:40 5,9 C 9,4 C 5,9 C 5,7 C 5,3 C 0,0 C 84 % 78 % 0 % 1016,2 hPa 0,0 l/m 4,5 km/h (1 Bft) W 270 0 min 3,4 C 5,3 C 6,0 km/h (2 Bft)
30.10.2017 04:45 5,9 C 9,4 C 5,9 C 5,6 C 5,1 C 0,0 C 84 % 78 % 0 % 1016,2 hPa 0,0 l/m 4,7 km/h (1 Bft) W-SW 247 0 min 3,4 C 4,3 C 9,0 km/h (2 Bft)
30.10.2017 04:50 5,9 C 9,4 C 5,9 C 5,6 C 5,0 C 0,0 C 84 % 79 % 0 % 1016,2 hPa 0,0 l/m 4,8 km/h (1 Bft) SW 225 0 min 3,4 C 4,2 C 5,0 km/h (1 Bft)
30.10.2017 04:55 5,8 C 9,3 C 5,9 C 5,5 C 4,8 C 0,0 C 84 % 79 % 0 % 1016,2 hPa 0,0 l/m 5,3 km/h (1 Bft) S-SW 202 0 min 3,3 C 3,7 C 8,7 km/h (2 Bft)
30.10.2017 05:00 5,9 C 9,4 C 5,9 C 5,6 C 5,1 C 0,0 C 84 % 79 % 0 % 1016,7 hPa 0,0 l/m 5,0 km/h (1 Bft) SW 225 0 min 3,4 C 4,2 C 4,3 km/h (1 Bft)
30.10.2017 05:05 5,9 C 9,3 C 6,0 C 5,7 C 5,4 C 0,0 C 84 % 79 % 0 % 1016,7 hPa 0,0 l/m 4,2 km/h (1 Bft) W-SW 247 0 min 3,4 C 5,4 C 2,3 km/h (1 Bft)
30.10.2017 05:10 5,9 C 9,4 C 6,0 C 5,8 C 5,7 C 0,0 C 84 % 79 % 0 % 1016,7 hPa 0,0 l/m 3,5 km/h (1 Bft) W-SW 247 0 min 3,4 C 5,7 C 3,9 km/h (1 Bft)
30.10.2017 05:15 5,9 C 9,3 C 6,0 C 5,8 C 5,6 C 0,0 C 84 % 79 % 0 % 1016,7 hPa 0,0 l/m 3,9 km/h (1 Bft) SW 225 0 min 3,4 C 5,6 C 5,1 km/h (1 Bft)
30.10.2017 05:20 5,8 C 9,3 C 5,9 C 5,6 C 5,3 C 0,0 C 84 % 79 % 0 % 1016,6 hPa 0,0 l/m 4,3 km/h (1 Bft) SW 225 0 min 3,3 C 5,3 C 5,6 km/h (1 Bft)
30.10.2017 05:25 5,8 C 9,3 C 5,9 C 5,6 C 5,3 C 0,0 C 84 % 79 % 0 % 1016,6 hPa 0,0 l/m 4,5 km/h (1 Bft) W-SW 247 0 min 3,3 C 5,3 C 4,3 km/h (1 Bft)
30.10.2017 05:30 5,9 C 9,4 C 5,9 C 5,6 C 5,1 C 0,0 C 84 % 79 % 0 % 1016,6 hPa 0,0 l/m 4,7 km/h (1 Bft) W-SW 247 0 min 3,4 C 4,3 C 10,8 km/h (2 Bft)
30.10.2017 05:35 5,9 C 9,3 C 5,9 C 5,6 C 4,9 C 0,0 C 84 % 80 % 0 % 1016,6 hPa 0,0 l/m 5,1 km/h (1 Bft) W-SW 247 0 min 3,4 C 3,9 C 7,4 km/h (2 Bft)
30.10.2017 05:40 5,8 C 9,3 C 5,8 C 5,4 C 4,7 C 0,0 C 84 % 80 % 0 % 1017,2 hPa 0,0 l/m 5,6 km/h (1 Bft) SW 225 0 min 3,3 C 3,5 C 4,8 km/h (1 Bft)
30.10.2017 05:45 5,7 C 9,3 C 5,9 C 5,4 C 4,8 C 0,0 C 84 % 80 % 0 % 1017,2 hPa 0,0 l/m 5,5 km/h (1 Bft) W-SW 247 0 min 3,2 C 3,7 C 5,8 km/h (2 Bft)
30.10.2017 05:50 5,7 C 9,3 C 5,9 C 5,4 C 4,8 C 0,0 C 84 % 80 % 0 % 1017,2 hPa 0,0 l/m 5,3 km/h (1 Bft) W-NW 292 0 min 3,2 C 3,7 C 5,1 km/h (1 Bft)
30.10.2017 05:55 5,7 C 9,3 C 5,9 C 5,6 C 5,3 C 0,0 C 84 % 80 % 0 % 1017,2 hPa 0,0 l/m 4,0 km/h (1 Bft) SW 225 0 min 3,2 C 5,3 C 3,7 km/h (1 Bft)
30.10.2017 06:00 5,7 C 9,3 C 5,7 C 5,6 C 5,4 C 0,0 C 84 % 80 % 0 % 1017,2 hPa 0,0 l/m 3,7 km/h (1 Bft) W-SW 247 0 min 3,2 C 5,4 C 4,7 km/h (1 Bft)
30.10.2017 06:05 5,6 C 9,3 C 5,7 C 5,3 C 4,8 C 0,0 C 84 % 80 % 0 % 1017,2 hPa 0,0 l/m 5,3 km/h (1 Bft) SW 225 0 min 3,1 C 3,7 C 6,1 km/h (2 Bft)
30.10.2017 06:10 5,6 C 9,3 C 5,7 C 5,3 C 4,8 C 0,0 C 84 % 81 % 0 % 1017,2 hPa 0,0 l/m 5,0 km/h (1 Bft) W-SW 247 0 min 3,1 C 3,9 C 0,0 km/h (0 Bft)
30.10.2017 06:15 5,6 C 9,3 C 5,6 C 5,4 C 5,0 C 0,0 C 84 % 81 % 0 % 1017,2 hPa 0,0 l/m 4,2 km/h (1 Bft) S-SW 202 0 min 3,1 C 5,0 C 4,7 km/h (1 Bft)
30.10.2017 06:20 5,5 C 9,3 C 5,6 C 5,3 C 5,0 C 0,0 C 84 % 81 % 0 % 1017,4 hPa 0,0 l/m 4,2 km/h (1 Bft) SW 225 0 min 3,0 C 5,0 C 4,0 km/h (1 Bft)
30.10.2017 06:25 5,5 C 9,3 C 5,6 C 5,3 C 4,8 C 0,0 C 84 % 81 % 0 % 1017,4 hPa 0,0 l/m 4,7 km/h (1 Bft) SW 225 0 min 3,0 C 4,0 C 4,2 km/h (1 Bft)
30.10.2017 06:30 5,5 C 9,3 C 5,6 C 5,3 C 4,8 C 0,0 C 84 % 81 % 0 % 1017,4 hPa 0,0 l/m 4,5 km/h (1 Bft) W-SW 247 0 min 3,0 C 4,8 C 4,2 km/h (1 Bft)
30.10.2017 06:35 5,5 C 9,3 C 5,7 C 5,3 C 4,8 C 0,0 C 84 % 81 % 0 % 1017,4 hPa 0,0 l/m 4,5 km/h (1 Bft) W-SW 247 0 min 3,0 C 4,8 C 2,9 km/h (1 Bft)
30.10.2017 06:40 5,4 C 9,3 C 5,7 C 5,1 C 4,6 C 0,0 C 85 % 81 % 0 % 1017,4 hPa 0,0 l/m 4,8 km/h (1 Bft) W-SW 247 0 min 3,1 C 3,7 C 6,4 km/h (2 Bft)
30.10.2017 06:45 5,4 C 9,3 C 5,6 C 5,0 C 4,3 C 0,0 C 85 % 81 % 0 % 1017,4 hPa 0,0 l/m 5,5 km/h (1 Bft) W-SW 247 0 min 3,1 C 3,1 C 4,0 km/h (1 Bft)
30.10.2017 06:50 5,3 C 9,3 C 5,5 C 4,9 C 4,1 C 0,0 C 85 % 81 % 0 % 1017,4 hPa 0,0 l/m 6,0 km/h (2 Bft) W 270 0 min 3,0 C 2,7 C 8,0 km/h (2 Bft)
30.10.2017 06:55 5,3 C 9,3 C 5,5 C 4,9 C 4,1 C 0,0 C 85 % 81 % 0 % 1017,4 hPa 0,0 l/m 5,8 km/h (2 Bft) W-SW 247 0 min 3,0 C 2,8 C 4,2 km/h (1 Bft)
30.10.2017 07:00 5,2 C 9,3 C 5,3 C 4,8 C 4,1 C 0,0 C 85 % 81 % 0 % 1018,0 hPa 0,0 l/m 5,3 km/h (1 Bft) SW 225 0 min 2,9 C 2,9 C 5,5 km/h (1 Bft)
30.10.2017 07:05 5,3 C 9,4 C 5,3 C 5,0 C 4,3 C 0,0 C 85 % 81 % 0 % 1018,0 hPa 0,0 l/m 4,7 km/h (1 Bft) W-SW 247 0 min 3,0 C 3,4 C 6,0 km/h (2 Bft)
30.10.2017 07:10 5,2 C 9,4 C 5,3 C 4,9 C 4,3 C 0,0 C 85 % 81 % 0 % 1018,0 hPa 0,0 l/m 4,8 km/h (1 Bft) S-SW 202 0 min 2,9 C 3,4 C 4,5 km/h (1 Bft)
30.10.2017 07:15 5,1 C 9,4 C 5,3 C 4,8 C 4,1 C 0,0 C 85 % 81 % 0 % 1018,0 hPa 0,0 l/m 5,3 km/h (1 Bft) W-SW 247 0 min 2,8 C 2,9 C 7,7 km/h (2 Bft)
30.10.2017 07:20 5,1 C 9,4 C 5,4 C 4,8 C 4,2 C 0,0 C 85 % 81 % 0 % 1018,2 hPa 0,0 l/m 5,3 km/h (1 Bft) SW 225 0 min 2,8 C 3,1 C 7,2 km/h (2 Bft)
30.10.2017 07:25 5,1 C 9,4 C 5,5 C 4,8 C 4,3 C 0,0 C 85 % 81 % 0 % 1018,2 hPa 0,0 l/m 5,0 km/h (1 Bft) W-SW 247 0 min 2,8 C 3,3 C 5,0 km/h (1 Bft)
30.10.2017 07:30 5,1 C 9,4 C 5,5 C 4,9 C 4,4 C 0,0 C 85 % 81 % 0 % 1018,2 hPa 0,0 l/m 4,8 km/h (1 Bft) W-SW 247 0 min 2,8 C 3,5 C 8,5 km/h (2 Bft)
30.10.2017 07:35 5,1 C 9,4 C 5,4 C 4,8 C 4,3 C 0,0 C 85 % 81 % 0 % 1018,2 hPa 0,0 l/m 5,3 km/h (1 Bft) SW 225 0 min 2,8 C 3,2 C 6,0 km/h (2 Bft)
30.10.2017 07:40 5,1 C 9,4 C 5,5 C 4,7 C 4,0 C 0,0 C 85 % 81 % 0 % 1018,6 hPa 0,0 l/m 6,1 km/h (2 Bft) SW 225 0 min 2,8 C 2,5 C 10,6 km/h (2 Bft)
30.10.2017 07:45 5,1 C 9,4 C 5,5 C 4,8 C 4,1 C 0,0 C 85 % 82 % 0 % 1018,6 hPa 0,0 l/m 6,3 km/h (2 Bft) SW 225 0 min 2,8 C 2,6 C 8,4 km/h (2 Bft)
30.10.2017 07:50 5,1 C 9,4 C 5,5 C 4,9 C 4,4 C 0,0 C 85 % 82 % 0 % 1018,6 hPa 0,0 l/m 5,6 km/h (1 Bft) SW 225 0 min 2,8 C 3,2 C 6,8 km/h (2 Bft)
30.10.2017 07:55 5,1 C 9,4 C 5,5 C 4,9 C 4,5 C 0,0 C 85 % 82 % 0 % 1018,6 hPa 0,0 l/m 5,3 km/h (1 Bft) W-SW 247 0 min 2,8 C 3,4 C 7,2 km/h (2 Bft)
30.10.2017 08:00 5,1 C 9,4 C 5,6 C 5,1 C 5,0 C 0,0 C 85 % 82 % 0 % 1018,8 hPa 0,0 l/m 4,2 km/h (1 Bft) SW 225 0 min 2,8 C 5,0 C 3,7 km/h (1 Bft)
30.10.2017 08:05 5,2 C 9,2 C 5,5 C 5,1 C 5,0 C 0,0 C 85 % 82 % 0 % 1018,8 hPa 0,0 l/m 4,3 km/h (1 Bft) W-SW 247 0 min 2,9 C 5,0 C 7,9 km/h (2 Bft)
30.10.2017 08:10 5,2 C 9,2 C 5,6 C 5,1 C 4,9 C 0,0 C 85 % 82 % 0 % 1018,8 hPa 0,0 l/m 4,8 km/h (1 Bft) SW 225 0 min 2,9 C 4,0 C 14,8 km/h (3 Bft)
30.10.2017 08:15 5,2 C 9,2 C 5,6 C 5,1 C 4,8 C 0,0 C 85 % 82 % 0 % 1018,8 hPa 0,0 l/m 5,3 km/h (1 Bft) SW 225 0 min 2,9 C 3,7 C 9,5 km/h (2 Bft)
30.10.2017 08:20 5,2 C 9,2 C 5,6 C 4,9 C 4,4 C 0,0 C 85 % 83 % 0 % 1018,8 hPa 0,0 l/m 6,6 km/h (2 Bft) SW 225 0 min 2,9 C 2,8 C 6,6 km/h (2 Bft)
30.10.2017 08:25 5,3 C 9,2 C 5,7 C 5,1 C 4,6 C 0,0 C 85 % 83 % 0 % 1018,8 hPa 0,0 l/m 6,0 km/h (2 Bft) W-NW 292 0 min 3,0 C 3,3 C 6,1 km/h (2 Bft)
30.10.2017 08:30 5,3 C 9,2 C 5,6 C 5,2 C 5,0 C 0,0 C 85 % 83 % 0 % 1018,8 hPa 0,0 l/m 4,8 km/h (1 Bft) NW 315 0 min 3,0 C 4,2 C 3,2 km/h (1 Bft)
30.10.2017 08:35 5,3 C 9,2 C 5,7 C 5,2 C 4,9 C 0,0 C 85 % 83 % 0 % 1018,8 hPa 0,0 l/m 5,3 km/h (1 Bft) S-SW 202 0 min 3,0 C 3,9 C 7,4 km/h (2 Bft)
30.10.2017 08:40 5,5 C 9,2 C 5,8 C 5,4 C 5,1 C 0,0 C 85 % 84 % 0 % 1019,5 hPa 0,0 l/m 5,5 km/h (1 Bft) SW 225 0 min 3,2 C 4,0 C 2,1 km/h (1 Bft)
30.10.2017 08:45 5,5 C 9,2 C 5,9 C 5,5 C 5,4 C 0,0 C 85 % 84 % 0 % 1019,5 hPa 0,0 l/m 4,7 km/h (1 Bft) W-SW 247 0 min 3,2 C 4,7 C 3,2 km/h (1 Bft)
30.10.2017 08:50 5,5 C 9,2 C 5,9 C 5,7 C 5,7 C 0,2 C 85 % 84 % 5 % 1019,5 hPa 0,0 l/m 4,0 km/h (1 Bft) W-SW 247 0 min 3,2 C 5,7 C 7,7 km/h (2 Bft)
30.10.2017 08:55 5,6 C 9,2 C 5,9 C 5,6 C 5,5 C 0,0 C 85 % 84 % 0 % 1019,5 hPa 0,0 l/m 4,5 km/h (1 Bft) W-SW 247 0 min 3,3 C 5,5 C 4,8 km/h (1 Bft)
30.10.2017 09:00 5,6 C 9,2 C 5,9 C 5,5 C 5,2 C 0,0 C 85 % 85 % 0 % 1020,0 hPa 0,0 l/m 5,8 km/h (2 Bft) W-SW 247 0 min 3,3 C 4,0 C 12,2 km/h (2 Bft)
30.10.2017 09:05 5,6 C 9,2 C 6,0 C 5,5 C 5,2 C 0,0 C 84 % 85 % 0 % 1020,0 hPa 0,0 l/m 5,6 km/h (1 Bft) W 270 0 min 3,1 C 4,1 C 4,3 km/h (1 Bft)
30.10.2017 09:10 5,7 C 9,2 C 6,3 C 5,7 C 5,6 C 0,0 C 84 % 85 % 0 % 1020,0 hPa 0,0 l/m 5,1 km/h (1 Bft) W-SW 247 0 min 3,2 C 4,7 C 6,4 km/h (2 Bft)
30.10.2017 09:15 5,7 C 9,2 C 6,2 C 5,7 C 5,6 C 0,0 C 84 % 86 % 0 % 1020,0 hPa 0,0 l/m 5,6 km/h (1 Bft) W-SW 247 0 min 3,2 C 4,5 C 8,5 km/h (2 Bft)
30.10.2017 09:20 5,8 C 9,2 C 6,1 C 5,7 C 5,5 C 0,0 C 84 % 86 % 0 % 1019,6 hPa 0,0 l/m 5,8 km/h (2 Bft) W-SW 247 0 min 3,3 C 4,4 C 21,7 km/h (4 Bft)
30.10.2017 09:25 5,9 C 9,1 C 6,3 C 5,9 C 5,9 C 0,0 C 84 % 87 % 0 % 1019,6 hPa 0,0 l/m 4,8 km/h (1 Bft) W-SW 247 0 min 3,4 C 5,2 C 2,9 km/h (1 Bft)
30.10.2017 09:30 5,8 C 9,1 C 6,4 C 6,3 C 6,3 C 0,5 C 84 % 87 % 13 % 1019,6 hPa 0,0 l/m 4,3 km/h (1 Bft) SW 225 0 min 3,3 C 6,3 C 13,8 km/h (3 Bft)
30.10.2017 09:35 5,9 C 9,1 C 6,4 C 6,5 C 6,5 C 0,6 C 84 % 87 % 16 % 1019,6 hPa 0,0 l/m 4,5 km/h (1 Bft) W-SW 247 0 min 3,4 C 6,5 C 2,3 km/h (1 Bft)
30.10.2017 09:40 6,0 C 9,1 C 6,5 C 6,4 C 6,4 C 0,4 C 84 % 87 % 11 % 1020,4 hPa 0,0 l/m 4,8 km/h (1 Bft) SW 225 0 min 3,5 C 5,7 C 5,0 km/h (1 Bft)
30.10.2017 09:45 6,0 C 9,1 C 6,4 C 6,8 C 6,8 C 0,8 C 84 % 87 % 21 % 1020,4 hPa 0,0 l/m 4,5 km/h (1 Bft) W-SW 247 0 min 3,5 C 6,8 C 12,7 km/h (3 Bft)
30.10.2017 09:50 6,2 C 9,1 C 6,6 C 6,9 C 6,9 C 0,7 C 83 % 88 % 18 % 1020,4 hPa 0,0 l/m 4,8 km/h (1 Bft) W-SW 247 0 min 3,5 C 6,3 C 2,7 km/h (1 Bft)
30.10.2017 09:55 6,3 C 9,1 C 6,5 C 6,7 C 6,7 C 0,4 C 83 % 88 % 11 % 1020,4 hPa 0,0 l/m 5,3 km/h (1 Bft) N-NO 22 0 min 3,6 C 5,9 C 7,4 km/h (2 Bft)
30.10.2017 10:00 6,4 C 9,1 C 6,4 C 6,8 C 6,8 C 0,4 C 83 % 87 % 11 % 1020,5 hPa 0,0 l/m 4,3 km/h (1 Bft) W-SW 247 0 min 3,7 C 6,8 C 4,3 km/h (1 Bft)
30.10.2017 10:05 6,3 C 9,1 C 6,3 C 6,6 C 6,6 C 0,3 C 82 % 87 % 8 % 1020,5 hPa 0,0 l/m 4,3 km/h (1 Bft) NW 315 0 min 3,5 C 6,6 C 6,4 km/h (2 Bft)
30.10.2017 10:10 6,4 C 9,0 C 6,4 C 6,5 C 6,5 C 0,1 C 82 % 88 % 3 % 1020,5 hPa 0,0 l/m 5,3 km/h (1 Bft) W-SW 247 0 min 3,6 C 5,7 C 12,6 km/h (3 Bft)
30.10.2017 10:15 6,4 C 9,0 C 6,3 C 6,9 C 6,9 C 0,5 C 82 % 87 % 13 % 1020,5 hPa 0,0 l/m 5,0 km/h (1 Bft) W-SW 247 0 min 3,6 C 6,2 C 8,0 km/h (2 Bft)
30.10.2017 10:20 6,5 C 9,0 C 6,4 C 7,2 C 7,2 C 0,7 C 82 % 88 % 18 % 1020,2 hPa 0,0 l/m 5,0 km/h (1 Bft) S-SO 157 0 min 3,7 C 6,6 C 3,9 km/h (1 Bft)
30.10.2017 10:25 6,7 C 9,0 C 6,4 C 7,4 C 7,4 C 0,7 C 81 % 88 % 18 % 1020,2 hPa 0,0 l/m 4,0 km/h (1 Bft) S-SW 202 0 min 3,7 C 7,4 C 6,8 km/h (2 Bft)
30.10.2017 10:30 6,7 C 9,0 C 6,4 C 7,1 C 7,1 C 0,4 C 81 % 88 % 11 % 1020,2 hPa 0,0 l/m 4,2 km/h (1 Bft) W-SW 247 0 min 3,7 C 7,1 C 6,9 km/h (2 Bft)
30.10.2017 10:35 6,8 C 9,0 C 6,5 C 7,0 C 7,0 C 0,2 C 80 % 88 % 5 % 1020,2 hPa 0,0 l/m 5,1 km/h (1 Bft) SW 225 0 min 3,6 C 6,3 C 11,7 km/h (2 Bft)
30.10.2017 10:40 6,8 C 8,9 C 6,5 C 7,5 C 7,5 C 0,7 C 79 % 88 % 18 % 1020,6 hPa 0,0 l/m 5,8 km/h (2 Bft) SW 225 0 min 3,4 C 6,7 C 26,4 km/h (4 Bft)
30.10.2017 10:45 6,9 C 8,9 C 6,7 C 7,6 C 7,6 C 0,7 C 79 % 88 % 18 % 1020,6 hPa 0,0 l/m 5,5 km/h (1 Bft) NW 315 0 min 3,5 C 6,9 C 6,4 km/h (2 Bft)
30.10.2017 10:50 7,0 C 8,9 C 6,7 C 8,0 C 8,0 C 1,0 C 78 % 88 % 26 % 1020,6 hPa 0,0 l/m 4,3 km/h (1 Bft) S 180 0 min 3,4 C 8,0 C 7,2 km/h (2 Bft)
30.10.2017 10:55 7,1 C 8,9 C 6,8 C 7,9 C 7,9 C 0,8 C 77 % 88 % 21 % 1020,6 hPa 0,0 l/m 5,1 km/h (1 Bft) W 270 0 min 3,3 C 7,3 C 5,3 km/h (1 Bft)
30.10.2017 11:00 7,2 C 8,9 C 6,9 C 7,3 C 7,3 C 0,1 C 76 % 88 % 3 % 1020,9 hPa 0,0 l/m 6,3 km/h (2 Bft) W 270 0 min 3,3 C 6,3 C 6,1 km/h (2 Bft)
30.10.2017 11:05 7,2 C 8,9 C 7,0 C 7,6 C 7,6 C 0,4 C 76 % 87 % 11 % 1020,9 hPa 0,0 l/m 6,0 km/h (2 Bft) S 180 0 min 3,3 C 6,7 C 6,6 km/h (2 Bft)
30.10.2017 11:10 7,5 C 8,9 C 7,0 C 8,6 C 8,6 C 1,1 C 74 % 87 % 29 % 1020,9 hPa 0,0 l/m 5,3 km/h (1 Bft) S-SW 202 0 min 3,2 C 8,1 C 3,5 km/h (1 Bft)
30.10.2017 11:15 7,5 C 8,9 C 7,1 C 8,2 C 8,2 C 0,7 C 74 % 86 % 18 % 1020,9 hPa 0,0 l/m 6,8 km/h (2 Bft) S-SW 202 0 min 3,2 C 7,2 C 22,2 km/h (4 Bft)
30.10.2017 11:20 7,4 C 8,9 C 7,2 C 8,1 C 8,1 C 0,7 C 73 % 85 % 18 % 1021,2 hPa 0,0 l/m 7,6 km/h (2 Bft) N-NW 337 0 min 2,9 C 6,9 C 3,9 km/h (1 Bft)
30.10.2017 11:25 7,5 C 8,9 C 7,3 C 8,9 C 8,9 C 1,4 C 72 % 85 % 37 % 1021,2 hPa 0,0 l/m 6,3 km/h (2 Bft) SW 225 0 min 2,8 C 8,1 C 3,9 km/h (1 Bft)
30.10.2017 11:30 7,6 C 8,9 C 7,5 C 10,4 C 10,4 C 2,8 C 72 % 86 % 74 % 1021,2 hPa 0,0 l/m 4,0 km/h (1 Bft) W 270 0 min 2,9 C 10,4 C 7,2 km/h (2 Bft)
30.10.2017 11:35 7,7 C 8,9 C 7,6 C 10,4 C 10,4 C 2,7 C 72 % 86 % 71 % 1021,2 hPa 0,0 l/m 4,3 km/h (1 Bft) W-SW 247 0 min 3,0 C 10,4 C 5,5 km/h (1 Bft)
30.10.2017 11:40 7,8 C 8,9 C 7,7 C 10,8 C 10,8 C 3,0 C 71 % 85 % 79 % 1021,2 hPa 0,0 l/m 5,1 km/h (1 Bft) S 180 0 min 2,9 C 10,8 C 9,5 km/h (2 Bft)
30.10.2017 11:45 7,9 C 8,9 C 7,5 C 10,4 C 10,4 C 2,5 C 69 % 83 % 66 % 1021,2 hPa 0,0 l/m 5,5 km/h (1 Bft) W-SW 247 0 min 2,6 C 10,4 C 4,2 km/h (1 Bft)
30.10.2017 11:50 7,6 C 8,7 C 7,5 C 9,5 C 9,5 C 1,9 C 69 % 83 % 50 % 1021,2 hPa 0,0 l/m 6,3 km/h (2 Bft) S-SW 202 0 min 2,3 C 8,8 C 10,9 km/h (2 Bft)
30.10.2017 11:55 7,6 C 8,9 C 7,5 C 9,5 C 9,5 C 1,9 C 69 % 83 % 50 % 1021,2 hPa 0,0 l/m 6,8 km/h (2 Bft) N-NW 337 0 min 2,3 C 8,7 C 7,2 km/h (2 Bft)
30.10.2017 12:00 7,7 C 8,7 C 7,5 C 9,4 C 9,4 C 1,7 C 68 % 83 % 45 % 1021,2 hPa 0,0 l/m 6,1 km/h (2 Bft) W-SW 247 0 min 2,2 C 8,8 C 4,5 km/h (1 Bft)
30.10.2017 12:05 7,7 C 8,9 C 7,5 C 9,6 C 9,6 C 1,9 C 69 % 83 % 50 % 1021,2 hPa 0,0 l/m 4,7 km/h (1 Bft) W-SW 247 0 min 2,4 C 9,4 C 7,2 km/h (2 Bft)
30.10.2017 12:10 7,7 C 8,7 C 7,2 C 8,6 C 8,6 C 0,9 C 68 % 81 % 24 % 1021,2 hPa 0,0 l/m 5,5 km/h (1 Bft) W-NW 292 0 min 2,2 C 8,0 C 13,7 km/h (3 Bft)
30.10.2017 12:15 7,6 C 8,7 C 7,3 C 8,1 C 8,1 C 0,5 C 66 % 81 % 13 % 1021,2 hPa 0,0 l/m 6,9 km/h (2 Bft) W-SW 247 0 min 1,7 C 7,0 C 8,2 km/h (2 Bft)
30.10.2017 12:20 7,7 C 8,7 C 7,5 C 8,7 C 8,4 C 1,0 C 66 % 79 % 26 % 1021,6 hPa 0,0 l/m 7,9 km/h (2 Bft) W 270 0 min 1,8 C 7,2 C 15,0 km/h (3 Bft)
30.10.2017 12:25 7,9 C 8,7 C 7,7 C 9,1 C 8,9 C 1,2 C 65 % 79 % 32 % 1021,6 hPa 0,0 l/m 7,7 km/h (2 Bft) S-SW 202 0 min 1,7 C 7,8 C 8,5 km/h (2 Bft)
30.10.2017 12:30 8,0 C 8,7 C 7,8 C 9,4 C 9,4 C 1,4 C 65 % 79 % 37 % 1021,6 hPa 0,0 l/m 6,3 km/h (2 Bft) W 270 0 min 1,8 C 8,7 C 10,9 km/h (2 Bft)
30.10.2017 12:35 8,3 C 8,7 C 8,3 C 10,3 C 10,3 C 2,0 C 65 % 79 % 53 % 1021,6 hPa 0,0 l/m 5,6 km/h (1 Bft) W 270 0 min 2,1 C 10,3 C 6,4 km/h (2 Bft)
30.10.2017 12:40 8,4 C 8,7 C 8,3 C 10,3 C 10,3 C 1,9 C 64 % 78 % 50 % 1021,5 hPa 0,0 l/m 6,8 km/h (2 Bft) S 180 0 min 2,0 C 10,3 C 10,1 km/h (2 Bft)
30.10.2017 12:45 8,4 C 8,7 C 8,4 C 10,6 C 10,6 C 2,2 C 64 % 79 % 58 % 1021,5 hPa 0,0 l/m 6,3 km/h (2 Bft) W-SW 247 0 min 2,0 C 10,6 C 6,9 km/h (2 Bft)
30.10.2017 12:50 8,7 C 8,7 C 8,5 C 10,8 C 10,8 C 2,1 C 63 % 77 % 55 % 1021,5 hPa 0,0 l/m 6,3 km/h (2 Bft) W 270 0 min 2,1 C 10,8 C 6,4 km/h (2 Bft)
30.10.2017 12:55 8,6 C 8,7 C 8,4 C 10,3 C 10,3 C 1,7 C 62 % 76 % 45 % 1021,5 hPa 0,0 l/m 6,3 km/h (2 Bft) S-SW 202 0 min 1,7 C 10,3 C 5,3 km/h (1 Bft)
30.10.2017 13:00 8,6 C 8,7 C 8,5 C 10,2 C 10,2 C 1,6 C 61 % 77 % 42 % 1021,8 hPa 0,0 l/m 6,4 km/h (2 Bft) W-SW 247 0 min 1,5 C 10,2 C 7,4 km/h (2 Bft)
30.10.2017 13:05 8,8 C 8,7 C 8,7 C 9,9 C 9,9 C 1,1 C 61 % 76 % 29 % 1021,8 hPa 0,0 l/m 7,1 km/h (2 Bft) N-NO 22 0 min 1,7 C 9,1 C 7,2 km/h (2 Bft)
30.10.2017 13:10 8,7 C 8,7 C 8,7 C 10,3 C 10,0 C 1,6 C 60 % 74 % 42 % 1021,8 hPa 0,0 l/m 8,9 km/h (2 Bft) SW 225 0 min 1,4 C 8,8 C 6,3 km/h (2 Bft)
30.10.2017 13:15 8,9 C 8,7 C 8,7 C 10,0 C 10,0 C 1,1 C 60 % 74 % 29 % 1021,8 hPa 0,0 l/m 9,0 km/h (2 Bft) W-SW 247 0 min 1,6 C 8,8 C 10,3 km/h (2 Bft)
30.10.2017 13:20 8,8 C 8,7 C 8,7 C 10,5 C 10,4 C 1,7 C 60 % 74 % 45 % 1021,6 hPa 0,0 l/m 7,7 km/h (2 Bft) W-SW 247 0 min 1,5 C 10,4 C 13,4 km/h (3 Bft)
30.10.2017 13:25 8,8 C 8,7 C 8,7 C 10,8 C 10,6 C 2,0 C 60 % 72 % 53 % 1021,6 hPa 0,0 l/m 8,2 km/h (2 Bft) SW 225 0 min 1,5 C 10,6 C 9,7 km/h (2 Bft)
30.10.2017 13:30 8,7 C 8,7 C 8,6 C 10,7 C 10,3 C 2,0 C 59 % 72 % 53 % 1021,6 hPa 0,0 l/m 8,2 km/h (2 Bft) W-SW 247 0 min 1,1 C 10,3 C 9,7 km/h (2 Bft)
30.10.2017 13:35 8,6 C 8,7 C 8,6 C 10,3 C 10,3 C 1,7 C 59 % 72 % 45 % 1021,6 hPa 0,0 l/m 8,0 km/h (2 Bft) W-SW 247 0 min 1,0 C 10,3 C 9,0 km/h (2 Bft)
30.10.2017 13:40 8,8 C 8,7 C 8,7 C 10,3 C 10,3 C 1,5 C 60 % 72 % 39 % 1021,7 hPa 0,0 l/m 6,1 km/h (2 Bft) W 270 0 min 1,5 C 10,3 C 4,2 km/h (1 Bft)
30.10.2017 13:45 8,9 C 8,7 C 8,7 C 10,8 C 10,8 C 1,9 C 60 % 73 % 50 % 1021,7 hPa 0,0 l/m 4,2 km/h (1 Bft) NW 315 0 min 1,6 C 10,8 C 4,5 km/h (1 Bft)
30.10.2017 13:50 8,7 C 8,7 C 8,6 C 10,3 C 10,3 C 1,6 C 59 % 73 % 42 % 1021,7 hPa 0,0 l/m 5,0 km/h (1 Bft) SW 225 0 min 1,1 C 10,3 C 12,2 km/h (2 Bft)
30.10.2017 13:55 8,7 C 8,7 C 8,7 C 9,9 C 9,9 C 1,2 C 60 % 73 % 32 % 1021,7 hPa 0,0 l/m 4,8 km/h (1 Bft) W-NW 292 0 min 1,4 C 9,7 C 3,4 km/h (1 Bft)
30.10.2017 14:00 8,7 C 8,7 C 8,6 C 9,7 C 9,7 C 1,0 C 59 % 72 % 26 % 1022,0 hPa 0,0 l/m 5,5 km/h (1 Bft) N-NO 22 0 min 1,1 C 9,3 C 4,7 km/h (1 Bft)
30.10.2017 14:05 8,9 C 8,7 C 8,6 C 10,4 C 10,4 C 1,5 C 59 % 73 % 39 % 1022,0 hPa 0,0 l/m 4,5 km/h (1 Bft) S-SO 157 0 min 1,3 C 10,4 C 3,1 km/h (1 Bft)
30.10.2017 14:10 8,7 C 8,7 C 8,3 C 9,9 C 9,9 C 1,2 C 58 % 72 % 32 % 1022,0 hPa 0,0 l/m 4,5 km/h (1 Bft) NW 315 0 min 0,9 C 9,9 C 6,3 km/h (2 Bft)
30.10.2017 14:15 8,5 C 8,7 C 8,1 C 9,4 C 9,4 C 0,9 C 59 % 72 % 24 % 1022,0 hPa 0,0 l/m 4,2 km/h (1 Bft) W-SW 247 0 min 1,0 C 9,4 C 4,3 km/h (1 Bft)
30.10.2017 14:20 8,4 C 8,7 C 8,3 C 9,6 C 9,6 C 1,2 C 59 % 71 % 32 % 1022,3 hPa 0,0 l/m 4,7 km/h (1 Bft) W-SW 247 0 min 0,9 C 9,4 C 12,2 km/h (2 Bft)
30.10.2017 14:25 8,5 C 8,7 C 8,1 C 9,6 C 9,6 C 1,1 C 59 % 72 % 29 % 1022,3 hPa 0,0 l/m 4,8 km/h (1 Bft) W-SW 247 0 min 1,0 C 9,4 C 3,4 km/h (1 Bft)
30.10.2017 14:30 8,4 C 8,7 C 8,0 C 9,6 C 9,6 C 1,2 C 58 % 70 % 32 % 1022,3 hPa 0,0 l/m 4,8 km/h (1 Bft) NW 315 0 min 0,6 C 9,4 C 12,2 km/h (2 Bft)
30.10.2017 14:35 8,4 C 8,7 C 8,0 C 10,3 C 10,3 C 1,9 C 58 % 69 % 50 % 1022,3 hPa 0,0 l/m 4,7 km/h (1 Bft) SW 225 0 min 0,6 C 10,3 C 6,1 km/h (2 Bft)
30.10.2017 14:40 8,6 C 8,7 C 8,3 C 11,6 C 11,6 C 3,0 C 58 % 70 % 79 % 1022,4 hPa 0,0 l/m 5,1 km/h (1 Bft) SW 225 0 min 0,8 C 11,6 C 8,7 km/h (2 Bft)
30.10.2017 14:45 8,8 C 8,7 C 8,2 C 12,0 C 12,0 C 3,2 C 58 % 68 % 84 % 1022,4 hPa 0,0 l/m 5,0 km/h (1 Bft) W-SW 247 0 min 1,0 C 12,0 C 6,4 km/h (2 Bft)
30.10.2017 14:50 8,9 C 8,7 C 8,1 C 12,1 C 12,1 C 3,2 C 58 % 68 % 84 % 1022,4 hPa 0,0 l/m 4,5 km/h (1 Bft) SW 225 0 min 1,1 C 12,1 C 5,5 km/h (1 Bft)
30.10.2017 14:55 8,7 C 8,7 C 8,1 C 11,8 C 11,8 C 3,1 C 58 % 68 % 82 % 1022,4 hPa 0,0 l/m 3,9 km/h (1 Bft) SO 135 0 min 0,9 C 11,8 C 6,4 km/h (2 Bft)
30.10.2017 15:00 8,7 C 8,7 C 7,9 C 11,6 C 11,6 C 2,9 C 58 % 69 % 76 % 1022,4 hPa 0,0 l/m 3,9 km/h (1 Bft) SW 225 0 min 0,9 C 11,6 C 4,3 km/h (1 Bft)
30.10.2017 15:05 8,7 C 8,7 C 7,9 C 11,9 C 11,9 C 3,2 C 58 % 69 % 84 % 1022,4 hPa 0,0 l/m 3,9 km/h (1 Bft) W-NW 292 0 min 0,9 C 11,9 C 8,5 km/h (2 Bft)
30.10.2017 15:10 8,7 C 8,7 C 7,9 C 11,4 C 11,4 C 2,7 C 58 % 69 % 71 % 1022,4 hPa 0,0 l/m 4,0 km/h (1 Bft) SW 225 0 min 0,9 C 11,4 C 8,4 km/h (2 Bft)
30.10.2017 15:15 8,7 C 8,7 C 7,8 C 11,5 C 11,5 C 2,8 C 58 % 69 % 74 % 1022,4 hPa 0,0 l/m 4,3 km/h (1 Bft) W 270 0 min 0,9 C 11,5 C 5,8 km/h (2 Bft)
30.10.2017 15:20 8,4 C 8,7 C 7,9 C 11,6 C 11,6 C 3,2 C 58 % 68 % 84 % 1022,7 hPa 0,0 l/m 4,8 km/h (1 Bft) W 270 0 min 0,6 C 11,6 C 10,1 km/h (2 Bft)
30.10.2017 15:25 8,4 C 8,7 C 7,8 C 11,6 C 11,6 C 3,2 C 58 % 68 % 84 % 1022,7 hPa 0,0 l/m 5,1 km/h (1 Bft) SW 225 0 min 0,6 C 11,6 C 8,5 km/h (2 Bft)
30.10.2017 15:30 8,3 C 8,7 C 7,6 C 11,0 C 11,0 C 2,7 C 59 % 68 % 71 % 1022,7 hPa 0,0 l/m 6,3 km/h (2 Bft) N-NW 337 5 min 0,8 C 11,0 C 4,3 km/h (1 Bft)
30.10.2017 15:35 8,4 C 8,7 C 7,7 C 11,2 C 11,2 C 2,8 C 59 % 69 % 74 % 1022,7 hPa 0,0 l/m 5,5 km/h (1 Bft) NW 315 5 min 0,9 C 11,2 C 2,9 km/h (1 Bft)
30.10.2017 15:40 8,7 C 8,7 C 7,5 C 11,2 C 11,2 C 2,5 C 58 % 69 % 66 % 1022,9 hPa 0,0 l/m 4,7 km/h (1 Bft) NW 315 5 min 0,9 C 11,2 C 9,5 km/h (2 Bft)
30.10.2017 15:45 8,7 C 8,7 C 7,5 C 10,9 C 10,9 C 2,2 C 58 % 69 % 58 % 1022,9 hPa 0,0 l/m 4,8 km/h (1 Bft) W-SW 247 5 min 0,9 C 10,9 C 4,0 km/h (1 Bft)
30.10.2017 15:50 8,7 C 8,7 C 7,5 C 10,1 C 10,1 C 1,4 C 58 % 68 % 37 % 1022,9 hPa 0,0 l/m 5,5 km/h (1 Bft) W-SW 247 5 min 0,9 C 10,1 C 8,7 km/h (2 Bft)
30.10.2017 15:55 8,7 C 8,7 C 7,4 C 10,2 C 10,2 C 1,5 C 58 % 68 % 39 % 1022,9 hPa 0,0 l/m 4,3 km/h (1 Bft) S-SW 202 5 min 0,9 C 10,2 C 1,6 km/h (1 Bft)
30.10.2017 16:00 8,6 C 8,7 C 7,3 C 9,8 C 9,8 C 1,2 C 58 % 69 % 32 % 1022,8 hPa 0,0 l/m 3,9 km/h (1 Bft) W-NW 292 5 min 0,8 C 9,8 C 3,1 km/h (1 Bft)
30.10.2017 16:05 8,5 C 8,7 C 7,3 C 9,6 C 9,6 C 1,1 C 59 % 69 % 29 % 1022,8 hPa 0,0 l/m 3,7 km/h (1 Bft) W-SW 247 5 min 1,0 C 9,6 C 9,0 km/h (2 Bft)
30.10.2017 16:10 8,5 C 8,7 C 7,0 C 9,1 C 9,1 C 0,6 C 59 % 70 % 16 % 1022,8 hPa 0,0 l/m 4,3 km/h (1 Bft) SW 225 0 min 1,0 C 9,1 C 6,4 km/h (2 Bft)
30.10.2017 16:15 8,3 C 8,7 C 7,1 C 8,7 C 8,7 C 0,4 C 59 % 70 % 11 % 1022,8 hPa 0,0 l/m 4,3 km/h (1 Bft) S-SW 202 0 min 0,8 C 8,7 C 3,2 km/h (1 Bft)
30.10.2017 16:20 8,0 C 8,7 C 7,0 C 8,4 C 8,4 C 0,4 C 60 % 71 % 11 % 1022,7 hPa 0,0 l/m 3,5 km/h (1 Bft) W-SW 247 0 min 0,7 C 8,4 C 2,1 km/h (1 Bft)
30.10.2017 16:25 7,9 C 8,7 C 6,8 C 8,1 C 8,1 C 0,2 C 60 % 71 % 5 % 1022,7 hPa 0,0 l/m 2,6 km/h (1 Bft) NO 45 0 min 0,6 C 8,1 C 0,0 km/h (0 Bft)
30.10.2017 16:30 7,6 C 8,7 C 6,7 C 7,6 C 7,5 C 0,0 C 62 % 72 % 0 % 1022,7 hPa 0,0 l/m 1,8 km/h (1 Bft) N 360 0 min 0,8 C 7,5 C 2,6 km/h (1 Bft)
30.10.2017 16:35 7,5 C 8,7 C 6,4 C 7,3 C 7,0 C 0,0 C 62 % 72 % 0 % 1022,7 hPa 0,0 l/m 1,3 km/h (1 Bft) W 270 0 min 0,7 C 7,0 C 0,0 km/h (0 Bft)
30.10.2017 16:40 7,2 C 8,7 C 6,3 C 7,0 C 6,5 C 0,0 C 63 % 72 % 0 % 1023,1 hPa 0,0 l/m 1,9 km/h (1 Bft) SW 225 0 min 0,6 C 6,5 C 2,6 km/h (1 Bft)
30.10.2017 16:45 7,1 C 8,7 C 6,1 C 6,7 C 6,0 C 0,0 C 63 % 73 % 0 % 1023,1 hPa 0,0 l/m 1,4 km/h (1 Bft) W 270 0 min 0,5 C 6,0 C 0,0 km/h (0 Bft)
30.10.2017 16:50 6,9 C 8,7 C 5,8 C 6,4 C 5,5 C 0,0 C 64 % 74 % 0 % 1023,1 hPa 0,0 l/m 0,6 km/h (0 Bft) NW 315 0 min 0,6 C 5,5 C 2,1 km/h (1 Bft)
30.10.2017 16:55 6,6 C 8,7 C 5,7 C 6,2 C 5,3 C 0,0 C 64 % 74 % 0 % 1023,1 hPa 0,0 l/m 0,8 km/h (0 Bft) NW 315 0 min 0,3 C 5,3 C 0,0 km/h (0 Bft)
30.10.2017 17:00 6,4 C 8,7 C 5,6 C 5,9 C 5,0 C 0,0 C 65 % 75 % 0 % 1023,3 hPa 0,0 l/m 1,0 km/h (0 Bft) S 180 0 min 0,3 C 5,0 C 1,8 km/h (1 Bft)
30.10.2017 17:05 6,4 C 8,7 C 5,5 C 5,9 C 4,9 C 0,0 C 66 % 75 % 0 % 1023,3 hPa 0,0 l/m 1,8 km/h (1 Bft) SW 225 0 min 0,5 C 4,9 C 0,0 km/h (0 Bft)
30.10.2017 17:10 6,3 C 8,8 C 5,5 C 5,8 C 4,8 C 0,0 C 66 % 76 % 0 % 1023,3 hPa 0,0 l/m 1,4 km/h (1 Bft) W-SW 247 0 min 0,4 C 4,8 C 0,0 km/h (0 Bft)
30.10.2017 17:15 6,3 C 8,8 C 5,2 C 5,7 C 4,5 C 0,0 C 66 % 76 % 0 % 1023,3 hPa 0,0 l/m 0,5 km/h (0 Bft) W-SW 247 0 min 0,4 C 4,5 C 1,8 km/h (1 Bft)
30.10.2017 17:20 6,1 C 8,8 C 5,1 C 5,4 C 4,1 C 0,0 C 67 % 76 % 0 % 1023,7 hPa 0,0 l/m 0,5 km/h (0 Bft) W 270 0 min 0,4 C 4,1 C 0,0 km/h (0 Bft)
30.10.2017 17:25 5,9 C 8,9 C 4,9 C 5,2 C 3,9 C 0,0 C 66 % 77 % 0 % 1023,7 hPa 0,0 l/m 0,3 km/h (0 Bft) W 270 0 min 0,0 C 3,9 C 0,0 km/h (0 Bft)
30.10.2017 17:30 5,6 C 8,9 C 4,5 C 4,9 C 3,6 C 0,0 C 67 % 77 % 0 % 1023,7 hPa 0,0 l/m 0,2 km/h (0 Bft) W-SW 247 0 min -0,0 C 3,6 C 0,0 km/h (0 Bft)
30.10.2017 17:35 5,5 C 8,9 C 4,5 C 4,8 C 3,4 C 0,0 C 68 % 78 % 0 % 1023,7 hPa 0,0 l/m 0,2 km/h (0 Bft) W-SW 247 0 min 0,1 C 3,4 C 0,0 km/h (0 Bft)
30.10.2017 17:40 5,3 C 8,9 C 4,4 C 4,7 C 3,4 C 0,0 C 69 % 78 % 0 % 1023,7 hPa 0,0 l/m 0,3 km/h (0 Bft) SW 225 0 min 0,1 C 3,4 C 0,0 km/h (0 Bft)
30.10.2017 17:45 5,2 C 8,9 C 4,3 C 4,5 C 3,2 C 0,0 C 69 % 78 % 0 % 1023,7 hPa 0,0 l/m 0,5 km/h (0 Bft) W-SW 247 0 min -0,0 C 3,2 C 0,0 km/h (0 Bft)
30.10.2017 17:50 5,0 C 9,0 C 4,1 C 4,3 C 2,9 C 0,0 C 69 % 79 % 0 % 1023,7 hPa 0,0 l/m 0,2 km/h (0 Bft) W-SW 247 0 min -0,2 C 2,9 C 0,0 km/h (0 Bft)
30.10.2017 17:55 4,8 C 9,0 C 3,9 C 4,1 C 2,8 C 0,0 C 69 % 79 % 0 % 1023,7 hPa 0,0 l/m 0,0 km/h (0 Bft) W 270 0 min -0,4 C 2,8 C 0,0 km/h (0 Bft)
30.10.2017 18:00 4,7 C 9,0 C 3,6 C 4,0 C 2,5 C 0,0 C 70 % 79 % 0 % 1024,2 hPa 0,0 l/m 0,0 km/h (0 Bft) W 270 0 min -0,3 C 2,5 C 0,0 km/h (0 Bft)
30.10.2017 18:05 4,4 C 9,0 C 3,5 C 3,7 C 2,3 C 0,0 C 70 % 81 % 0 % 1024,2 hPa 0,0 l/m 0,0 km/h (0 Bft) W-SW 247 0 min -0,6 C 2,3 C 0,0 km/h (0 Bft)
30.10.2017 18:10 4,3 C 9,0 C 3,5 C 3,7 C 2,5 C 0,0 C 71 % 81 % 0 % 1024,2 hPa 0,0 l/m 0,2 km/h (0 Bft) W-SW 247 0 min -0,5 C 2,5 C 0,0 km/h (0 Bft)
30.10.2017 18:15 4,3 C 9,0 C 3,5 C 3,7 C 2,5 C 0,0 C 72 % 82 % 0 % 1024,2 hPa 0,0 l/m 0,2 km/h (0 Bft) W-SW 247 0 min -0,3 C 2,5 C 0,0 km/h (0 Bft)
30.10.2017 18:20 4,0 C 9,1 C 3,4 C 3,5 C 2,4 C 0,0 C 72 % 82 % 0 % 1024,2 hPa 0,0 l/m 0,0 km/h (0 Bft) W-SW 247 0 min -0,6 C 2,4 C 0,0 km/h (0 Bft)
30.10.2017 18:25 3,9 C 9,1 C 3,1 C 3,4 C 2,3 C 0,0 C 72 % 82 % 0 % 1024,2 hPa 0,0 l/m 0,0 km/h (0 Bft) W-SW 247 0 min -0,7 C 2,3 C 0,0 km/h (0 Bft)
30.10.2017 18:30 3,8 C 9,1 C 2,9 C 3,3 C 2,2 C 0,0 C 72 % 82 % 0 % 1024,2 hPa 0,0 l/m 0,0 km/h (0 Bft) W-SW 247 0 min -0,8 C 2,2 C 0,0 km/h (0 Bft)
30.10.2017 18:35 3,7 C 9,1 C 2,9 C 3,2 C 2,1 C 0,0 C 73 % 83 % 0 % 1024,2 hPa 0,0 l/m 0,0 km/h (0 Bft) W 270 0 min -0,7 C 2,1 C 0,0 km/h (0 Bft)
30.10.2017 18:40 3,6 C 9,0 C 2,9 C 3,1 C 2,2 C 0,0 C 74 % 83 % 0 % 1024,3 hPa 0,0 l/m 0,2 km/h (0 Bft) W-SW 247 0 min -0,6 C 2,2 C 0,0 km/h (0 Bft)
30.10.2017 18:45 3,6 C 9,1 C 3,1 C 3,2 C 2,3 C 0,0 C 75 % 84 % 0 % 1024,3 hPa 0,0 l/m 0,2 km/h (0 Bft) W-NW 292 0 min -0,4 C 2,3 C 0,0 km/h (0 Bft)
30.10.2017 18:50 3,6 C 9,1 C 3,1 C 3,2 C 2,5 C 0,0 C 75 % 84 % 0 % 1024,3 hPa 0,0 l/m 0,0 km/h (0 Bft) W 270 0 min -0,4 C 2,5 C 0,0 km/h (0 Bft)
30.10.2017 18:55 3,5 C 9,1 C 3,0 C 3,2 C 2,5 C 0,0 C 76 % 84 % 0 % 1024,3 hPa 0,0 l/m 0,0 km/h (0 Bft) W 270 0 min -0,3 C 2,5 C 0,0 km/h (0 Bft)
30.10.2017 19:00 3,4 C 9,1 C 2,9 C 3,1 C 2,4 C 0,0 C 76 % 84 % 0 % 1024,8 hPa 0,0 l/m 0,0 km/h (0 Bft) W-SW 247 0 min -0,4 C 2,4 C 0,0 km/h (0 Bft)
30.10.2017 19:05 3,4 C 9,1 C 2,8 C 3,0 C 2,2 C 0,0 C 76 % 84 % 0 % 1024,8 hPa 0,0 l/m 0,0 km/h (0 Bft) W-SW 247 0 min -0,4 C 2,2 C 0,0 km/h (0 Bft)
30.10.2017 19:10 3,2 C 9,1 C 2,9 C 2,9 C 2,3 C 0,0 C 76 % 85 % 0 % 1024,8 hPa 0,0 l/m 0,0 km/h (0 Bft) SW 225 0 min -0,6 C 2,3 C 0,0 km/h (0 Bft)
30.10.2017 19:15 3,3 C 9,3 C 2,9 C 3,0 C 2,3 C 0,0 C 77 % 85 % 0 % 1024,8 hPa 0,0 l/m 0,0 km/h (0 Bft) W-SW 247 0 min -0,3 C 2,3 C 0,0 km/h (0 Bft)
30.10.2017 19:20 3,2 C 9,3 C 2,9 C 3,0 C 2,7 C 0,0 C 78 % 86 % 0 % 1024,9 hPa 0,0 l/m 0,0 km/h (0 Bft) W-NW 292 0 min -0,3 C 2,7 C 0,0 km/h (0 Bft)
30.10.2017 19:25 3,3 C 9,2 C 3,1 C 3,1 C 2,8 C 0,0 C 78 % 86 % 0 % 1024,9 hPa 0,0 l/m 0,0 km/h (0 Bft) W-NW 292 0 min -0,2 C 2,8 C 0,0 km/h (0 Bft)
30.10.2017 19:30 3,3 C 9,2 C 3,2 C 3,2 C 3,0 C 0,0 C 79 % 86 % 0 % 1024,9 hPa 0,0 l/m 0,0 km/h (0 Bft) W-NW 292 0 min 0,0 C 3,0 C 0,0 km/h (0 Bft)
30.10.2017 19:35 3,5 C 9,2 C 3,2 C 3,4 C 3,1 C 0,0 C 79 % 86 % 0 % 1024,9 hPa 0,0 l/m 0,0 km/h (0 Bft) W-NW 292 0 min 0,2 C 3,1 C 0,0 km/h (0 Bft)
30.10.2017 19:40 3,5 C 9,2 C 3,2 C 3,3 C 2,9 C 0,0 C 79 % 86 % 0 % 1024,6 hPa 0,0 l/m 0,0 km/h (0 Bft) SW 225 0 min 0,2 C 2,9 C 0,0 km/h (0 Bft)
30.10.2017 19:45 3,5 C 9,2 C 3,3 C 3,3 C 2,9 C 0,0 C 79 % 86 % 0 % 1024,6 hPa 0,0 l/m 0,0 km/h (0 Bft) W-NW 292 0 min 0,2 C 2,9 C 0,0 km/h (0 Bft)
30.10.2017 19:50 3,5 C 9,2 C 3,4 C 3,4 C 3,2 C 0,0 C 79 % 86 % 0 % 1024,6 hPa 0,0 l/m 0,0 km/h (0 Bft) SW 225 0 min 0,2 C 3,2 C 0,0 km/h (0 Bft)
30.10.2017 19:55 3,6 C 9,2 C 3,5 C 3,5 C 3,4 C 0,0 C 80 % 87 % 0 % 1024,6 hPa 0,0 l/m 0,0 km/h (0 Bft) W-SW 247 0 min 0,5 C 3,4 C 0,0 km/h (0 Bft)
30.10.2017 20:00 3,8 C 9,1 C 3,6 C 3,8 C 3,8 C 0,0 C 80 % 87 % 0 % 1024,8 hPa 0,0 l/m 0,6 km/h (0 Bft) W-SW 247 0 min 0,7 C 3,8 C 0,0 km/h (0 Bft)
30.10.2017 20:05 4,1 C 9,0 C 3,9 C 4,0 C 3,9 C 0,0 C 80 % 86 % 0 % 1024,8 hPa 0,0 l/m 0,6 km/h (0 Bft) SW 225 0 min 1,0 C 3,9 C 0,0 km/h (0 Bft)
30.10.2017 20:10 4,1 C 9,0 C 4,0 C 4,1 C 4,0 C 0,0 C 80 % 86 % 0 % 1024,8 hPa 0,0 l/m 0,3 km/h (0 Bft) W-SW 247 0 min 1,0 C 4,0 C 0,0 km/h (0 Bft)
30.10.2017 20:15 4,3 C 9,0 C 4,0 C 4,2 C 4,0 C 0,0 C 80 % 85 % 0 % 1024,8 hPa 0,0 l/m 0,3 km/h (0 Bft) SW 225 0 min 1,2 C 4,0 C 2,1 km/h (1 Bft)
30.10.2017 20:20 4,3 C 9,0 C 4,1 C 4,2 C 4,0 C 0,0 C 80 % 85 % 0 % 1025,0 hPa 0,0 l/m 1,4 km/h (1 Bft) SW 225 0 min 1,2 C 4,0 C 3,4 km/h (1 Bft)
30.10.2017 20:25 4,4 C 9,0 C 4,0 C 4,2 C 3,9 C 0,0 C 79 % 85 % 0 % 1025,0 hPa 0,0 l/m 2,1 km/h (1 Bft) SW 225 0 min 1,1 C 3,9 C 2,3 km/h (1 Bft)
30.10.2017 20:30 4,4 C 9,0 C 4,0 C 4,2 C 3,8 C 0,0 C 79 % 85 % 0 % 1025,0 hPa 0,0 l/m 2,4 km/h (1 Bft) W-SW 247 0 min 1,1 C 3,8 C 2,7 km/h (1 Bft)
30.10.2017 20:35 4,5 C 9,0 C 4,0 C 4,3 C 3,8 C 0,0 C 79 % 85 % 0 % 1025,0 hPa 0,0 l/m 2,3 km/h (1 Bft) W 270 0 min 1,2 C 3,8 C 6,1 km/h (2 Bft)
30.10.2017 20:40 4,7 C 9,0 C 4,1 C 4,4 C 3,9 C 0,0 C 79 % 85 % 0 % 1025,5 hPa 0,0 l/m 2,7 km/h (1 Bft) W 270 0 min 1,4 C 3,9 C 4,8 km/h (1 Bft)
30.10.2017 20:45 4,7 C 9,0 C 4,3 C 4,4 C 3,8 C 0,0 C 79 % 85 % 0 % 1025,5 hPa 0,0 l/m 3,4 km/h (1 Bft) SW 225 0 min 1,4 C 3,8 C 3,7 km/h (1 Bft)
30.10.2017 20:50 4,8 C 8,9 C 4,3 C 4,4 C 3,7 C 0,0 C 78 % 85 % 0 % 1025,5 hPa 0,0 l/m 3,9 km/h (1 Bft) W 270 0 min 1,3 C 3,7 C 3,9 km/h (1 Bft)
30.10.2017 20:55 4,8 C 9,0 C 4,1 C 4,5 C 3,9 C 0,0 C 78 % 85 % 0 % 1025,5 hPa 0,0 l/m 3,4 km/h (1 Bft) W-SW 247 0 min 1,3 C 3,9 C 4,5 km/h (1 Bft)
30.10.2017 21:00 4,9 C 8,9 C 4,1 C 4,6 C 4,1 C 0,0 C 78 % 85 % 0 % 1025,6 hPa 0,0 l/m 2,7 km/h (1 Bft) W-SW 247 0 min 1,4 C 4,1 C 3,7 km/h (1 Bft)
30.10.2017 21:05 4,9 C 9,0 C 4,4 C 4,7 C 4,3 C 0,0 C 78 % 86 % 0 % 1025,6 hPa 0,0 l/m 2,9 km/h (1 Bft) W 270 0 min 1,4 C 4,3 C 2,3 km/h (1 Bft)
30.10.2017 21:10 5,1 C 9,0 C 4,5 C 4,9 C 4,4 C 0,0 C 79 % 86 % 0 % 1025,6 hPa 0,0 l/m 3,1 km/h (1 Bft) W-SW 247 0 min 1,8 C 4,4 C 3,4 km/h (1 Bft)
30.10.2017 21:15 5,1 C 9,1 C 4,2 C 4,8 C 4,2 C 0,0 C 79 % 86 % 0 % 1025,6 hPa 0,0 l/m 2,6 km/h (1 Bft) W-SW 247 0 min 1,8 C 4,2 C 1,9 km/h (1 Bft)
30.10.2017 21:20 4,9 C 9,1 C 4,3 C 4,6 C 3,9 C 0,0 C 80 % 86 % 0 % 1025,1 hPa 0,0 l/m 1,0 km/h (0 Bft) SW 225 0 min 1,7 C 3,9 C 0,0 km/h (0 Bft)
30.10.2017 21:25 4,8 C 9,1 C 4,3 C 4,5 C 3,9 C 0,0 C 80 % 87 % 0 % 1025,1 hPa 0,0 l/m 0,8 km/h (0 Bft) W-SW 247 0 min 1,6 C 3,9 C 1,8 km/h (1 Bft)
30.10.2017 21:30 4,8 C 9,2 C 4,2 C 4,5 C 3,9 C 0,0 C 81 % 88 % 0 % 1025,1 hPa 0,7 l/m 0,6 km/h (0 Bft) W-SW 247 0 min 1,8 C 3,9 C 0,0 km/h (0 Bft)
30.10.2017 21:35 4,9 C 9,2 C 4,2 C 4,6 C 3,9 C 0,0 C 81 % 88 % 0 % 1025,1 hPa 0,0 l/m 0,2 km/h (0 Bft) W-SW 247 0 min 1,9 C 3,9 C 0,0 km/h (0 Bft)
30.10.2017 21:40 4,8 C 9,2 C 4,2 C 4,5 C 3,8 C 0,0 C 82 % 88 % 0 % 1025,8 hPa 0,0 l/m 0,2 km/h (0 Bft) SW 225 0 min 2,0 C 3,8 C 2,7 km/h (1 Bft)
30.10.2017 21:45 4,9 C 9,2 C 4,3 C 4,6 C 3,9 C 0,0 C 82 % 88 % 0 % 1025,8 hPa 0,0 l/m 1,0 km/h (0 Bft) W-SW 247 0 min 2,1 C 3,9 C 3,7 km/h (1 Bft)
30.10.2017 21:50 4,9 C 9,2 C 4,4 C 4,6 C 4,0 C 0,0 C 83 % 89 % 0 % 1025,8 hPa 0,0 l/m 2,6 km/h (1 Bft) W 270 0 min 2,3 C 4,0 C 5,8 km/h (2 Bft)
30.10.2017 21:55 5,0 C 9,2 C 4,3 C 4,6 C 3,9 C 0,0 C 83 % 89 % 0 % 1025,8 hPa 0,0 l/m 3,1 km/h (1 Bft) SW 225 0 min 2,4 C 3,9 C 0,0 km/h (0 Bft)
30.10.2017 22:00 5,0 C 9,1 C 4,3 C 4,4 C 3,2 C 0,0 C 84 % 89 % 0 % 1025,5 hPa 0,0 l/m 4,0 km/h (1 Bft) W-SW 247 0 min 2,5 C 3,2 C 4,2 km/h (1 Bft)
30.10.2017 22:05 5,1 C 9,1 C 4,4 C 4,6 C 3,6 C 0,0 C 84 % 89 % 0 % 1025,5 hPa 0,0 l/m 3,5 km/h (1 Bft) S-SW 202 0 min 2,6 C 3,6 C 3,4 km/h (1 Bft)
30.10.2017 22:10 5,1 C 9,1 C 4,5 C 4,7 C 3,9 C 0,0 C 84 % 89 % 0 % 1025,5 hPa 0,0 l/m 3,5 km/h (1 Bft) W-SW 247 0 min 2,6 C 3,9 C 2,3 km/h (1 Bft)
30.10.2017 22:15 5,2 C 9,1 C 4,7 C 4,8 C 4,1 C 0,0 C 84 % 89 % 0 % 1025,5 hPa 0,0 l/m 3,5 km/h (1 Bft) W-SW 247 0 min 2,7 C 4,1 C 4,3 km/h (1 Bft)
30.10.2017 22:20 5,2 C 9,1 C 4,7 C 4,9 C 4,3 C 0,0 C 84 % 89 % 0 % 1025,5 hPa 0,0 l/m 3,2 km/h (1 Bft) W 270 0 min 2,7 C 4,3 C 0,0 km/h (0 Bft)
30.10.2017 22:25 5,2 C 9,1 C 4,7 C 5,0 C 4,6 C 0,0 C 84 % 89 % 0 % 1025,5 hPa 0,0 l/m 2,7 km/h (1 Bft) W-SW 247 0 min 2,7 C 4,6 C 2,6 km/h (1 Bft)
30.10.2017 22:30 5,3 C 9,1 C 4,8 C 5,1 C 4,7 C 0,0 C 84 % 89 % 0 % 1025,5 hPa 0,0 l/m 2,4 km/h (1 Bft) SW 225 0 min 2,8 C 4,7 C 2,9 km/h (1 Bft)
30.10.2017 22:35 5,4 C 9,1 C 4,8 C 5,2 C 4,7 C 0,0 C 84 % 89 % 0 % 1025,5 hPa 0,0 l/m 2,6 km/h (1 Bft) W-SW 247 0 min 2,9 C 4,7 C 0,0 km/h (0 Bft)
30.10.2017 22:40 5,4 C 9,1 C 4,9 C 5,2 C 4,9 C 0,0 C 84 % 89 % 0 % 1025,3 hPa 0,0 l/m 2,4 km/h (1 Bft) SW 225 0 min 2,9 C 4,9 C 3,2 km/h (1 Bft)
30.10.2017 22:45 5,5 C 9,1 C 4,9 C 5,3 C 5,0 C 0,0 C 84 % 89 % 0 % 1025,3 hPa 0,0 l/m 2,7 km/h (1 Bft) W-SW 247 0 min 3,0 C 5,0 C 3,5 km/h (1 Bft)
30.10.2017 22:50 5,7 C 9,1 C 5,1 C 5,5 C 5,1 C 0,0 C 84 % 89 % 0 % 1025,3 hPa 0,0 l/m 3,1 km/h (1 Bft) W-SW 247 0 min 3,2 C 5,1 C 5,6 km/h (1 Bft)
30.10.2017 22:55 5,6 C 9,1 C 5,1 C 5,5 C 5,2 C 0,0 C 84 % 89 % 0 % 1025,3 hPa 0,0 l/m 3,2 km/h (1 Bft) W-SW 247 0 min 3,1 C 5,2 C 4,5 km/h (1 Bft)
30.10.2017 23:00 5,7 C 9,1 C 5,1 C 5,5 C 5,0 C 0,0 C 83 % 89 % 0 % 1025,6 hPa 0,0 l/m 3,5 km/h (1 Bft) S 180 0 min 3,0 C 5,0 C 5,8 km/h (2 Bft)
30.10.2017 23:05 5,7 C 9,1 C 5,1 C 5,4 C 4,8 C 0,0 C 83 % 89 % 0 % 1025,6 hPa 0,0 l/m 3,7 km/h (1 Bft) SW 225 0 min 3,0 C 4,8 C 5,6 km/h (1 Bft)
30.10.2017 23:10 5,7 C 9,1 C 5,0 C 5,5 C 5,1 C 0,0 C 83 % 89 % 0 % 1025,6 hPa 0,0 l/m 3,5 km/h (1 Bft) S-SW 202 0 min 3,0 C 5,1 C 4,0 km/h (1 Bft)
30.10.2017 23:15 5,7 C 9,1 C 5,1 C 5,5 C 5,1 C 0,0 C 83 % 89 % 0 % 1025,6 hPa 0,0 l/m 3,4 km/h (1 Bft) SW 225 0 min 3,0 C 5,1 C 3,4 km/h (1 Bft)
30.10.2017 23:20 5,8 C 9,1 C 5,2 C 5,4 C 4,7 C 0,0 C 83 % 89 % 0 % 1025,6 hPa 0,0 l/m 4,3 km/h (1 Bft) SW 225 0 min 3,1 C 4,7 C 6,9 km/h (2 Bft)
30.10.2017 23:25 5,9 C 9,1 C 5,1 C 5,5 C 4,7 C 0,0 C 83 % 89 % 0 % 1025,6 hPa 0,0 l/m 4,2 km/h (1 Bft) W-SW 247 0 min 3,2 C 4,7 C 4,5 km/h (1 Bft)
30.10.2017 23:30 5,8 C 9,1 C 5,1 C 5,4 C 4,5 C 0,0 C 83 % 89 % 0 % 1025,6 hPa 0,0 l/m 4,5 km/h (1 Bft) SW 225 0 min 3,1 C 4,5 C 5,0 km/h (1 Bft)
30.10.2017 23:35 5,8 C 9,1 C 5,1 C 5,3 C 4,2 C 0,0 C 83 % 89 % 0 % 1025,6 hPa 0,0 l/m 5,0 km/h (1 Bft) W-SW 247 0 min 3,1 C 3,2 C 7,2 km/h (2 Bft)
30.10.2017 23:40 5,8 C 9,1 C 5,1 C 5,3 C 4,4 C 0,0 C 83 % 89 % 0 % 1025,5 hPa 0,0 l/m 4,8 km/h (1 Bft) W-SW 247 0 min 3,1 C 3,5 C 5,3 km/h (1 Bft)
30.10.2017 23:45 5,8 C 9,1 C 5,2 C 5,3 C 4,3 C 0,0 C 83 % 89 % 0 % 1025,5 hPa 0,0 l/m 5,1 km/h (1 Bft) W-SW 247 0 min 3,1 C 3,2 C 7,2 km/h (2 Bft)
30.10.2017 23:50 5,8 C 9,1 C 5,2 C 5,3 C 4,3 C 0,0 C 83 % 89 % 0 % 1025,5 hPa 0,0 l/m 5,3 km/h (1 Bft) W-SW 247 0 min 3,1 C 3,2 C 8,2 km/h (2 Bft)
30.10.2017 23:55 5,7 C 9,1 C 5,2 C 5,2 C 4,3 C 0,0 C 83 % 89 % 0 % 1025,5 hPa 0,0 l/m 5,1 km/h (1 Bft) SW 225 0 min 3,0 C 3,2 C 6,1 km/h (2 Bft)
_ Min-Zeit 19:10 11:50 19:05 19:10 18:35 00:00 14:10 14:45 00:00 00:00 - 17:55 - - - 18:30 01:50 04:35
Minimum _ 3,2 C 8,7 C 2,8 C 2,9 C 2,1 C 0,0 C 58 % 68 % 0 % 1014,1 hPa - 0,0 km/h (0 Bft) - - - -0,8 C 0,6 C 0,0 km/h (0 Bft)
_ Max-Zeit 13:15 00:00 13:05 14:50 14:50 14:50 00:00 21:50 14:50 21:40 21:30 13:15 - - 15:30 10:00 14:50 10:40
Maximum _ 8,9 C 9,9 C 8,7 C 12,1 C 12,1 C 3,2 C 86 % 89 % 84 % 1025,8 hPa 0,7 l/m 9,0 km/h
W-SW (2 Bft)
- - 5 min 3,7 C 12,1 C 26,4 km/h
SW (4 Bft)
Durchschnitt _ 6,0 C 9,1 C 5,7 C 6,2 C 5,7 C 0,4 C 77 % 80 % 11 % 1020,6 hPa #0,7 l/m 4,3 km/h (1 Bft) W-SW - #40 min. 2,1 C 5,1 C 5,5 km/h (1 Bft)
2017 www.wetterstation-wechselburg.de